Tracking 35334 objects as of 13-Sep-2026
HD Live streaming from Space Station
objects crossing your sky now

COSMOS 1375 DEB

Track COSMOS 1375 DEB now!
10-day predictions


NORAD ID: 17797
Int'l Code: 1982-055AP
Launch date: June 6, 1982
Source: Commonwealth of Independent States (former USSR) (CIS)
Launch site: PLESETSK MISSILE AND SPACE COMPLEX (PKMTR)

Note: This is SATELLITE DEBRIS
Your satellite tracking list
Your tracking list is empty




NASA's NSSDC Master Catalog

Two Line Element Set (TLE):
1 17797U 82055AP  26255.96923905  .00000430  00000-0  40694-3 0  9997
2 17797  65.8249  71.5116 0014836 213.6580 309.8102 13.91268895 63986
Source of the keplerian elements: AFSPC